Location: Newark
(45.5000°N, 11.4167°E)
Time: 06:23:05
(UTC+00:00)

Vanguard 3 - Pass Details

Date: 31 August 2019
Orbit: 508 x 3263 km, 33.4° (Epoch: 14 September)

Event Time Altitude Azimuth Distance (km) Brightness Sun altitude
Rises 16:20:18 0° 260° (W) 5,578 13.3 15.6°
Reaches altitude 10° 16:25:05 10° 253° (WSW) 4,072 12.7 14.8°
Maximum altitude 16:33:25 31° 196° (SSW) 1,935 9.4 13.3°
Drops below altitude 10° 16:38:41 10° 135° (SE) 2,508 9.3 12.4°
Sets 16:40:56 0° 124° (SE) 3,201 9.7 12.0°
